Weather History for Tucumcari, NM

Change the Weather History Date:

Thursday, February 21, 2013

  Actual Average Record
Temperature  
Mean Temperature 36 °F -  
Max Temperature 46 °F 59 °F 80 °F (1981)
Min Temperature 26 °F 29 °F 8 °F (1955)
Degree Days  
Heating Degree Days 28    
Moisture  
Dew Point 31 °F    
Average Humidity 84    
Maximum Humidity 93    
Minimum Humidity 68    
Precipitation  
Precipitation 0.29 in - - ()
Sea Level Pressure  
Sea Level Pressure 29.62 in    
Wind  
Wind Speed 10 mph (East)    
Max Wind Speed 22 mph    
Max Gust Speed 28 mph    
Visibility 8 miles    
Events Fog , Rain , Snow    
Averages and records for this station are not official NWS values.
T = Trace of Precipitation, MM = Missing Value Source: NWS Daily Summary

Daily Weather History Graph

Daily Weather History Graph

Search for Another Location

Airport:

Trip Planner

Search our weather history database for the weather conditions in past years. The results will help you decide how hot, cold, wet, or windy it might be!

Date:

Astronomy

Feb. 21, 2013 Rise Set
Actual Time 6:33 AM MST 5:42 PM MST
Civil Twilight 6:07 AM MST 6:08 PM MST
Nautical Twilight 5:38 AM MST 6:38 PM MST
Astronomical Twilight 5:08 AM MST 7:07 PM MST
Moon 2:05 PM MST (2/21) 3:33 AM MST (2/21)
Length of Visible Light 12h 00m
Length of Day
11h 09m
Waxing Gibbous, 84% of the Moon is Illuminated
Feb 21
Waxing Gibbous
Feb 25
Full
Mar 4
Last Quarter
Mar 11
New
Mar 19
First Quarter

Hourly Weather History & Observations

Time (MST) Temp. Windchill Dew Point Humidity Pressure Visibility Wind Dir Wind Speed Gust Speed Precip Events Conditions
12:08 AM 39.2 °F 33.6 °F 35.6 °F 87% 29.53 in 10.0 mi SE 8.1 mph - N/A   Scattered Clouds
12:17 AM 39.2 °F 32.5 °F 35.6 °F 87% 29.54 in 10.0 mi SSE 10.4 mph - N/A   Mostly Cloudy
12:53 AM 39.0 °F 30.3 °F 35.1 °F 86% 29.49 in 10.0 mi SSE 16.1 mph - N/A   Mostly Cloudy
1:53 AM 37.9 °F 29.6 °F 35.1 °F 89% 29.48 in 10.0 mi SSE 13.8 mph - N/A   Overcast
2:06 AM 37.4 °F 29.3 °F 33.8 °F 87% 29.53 in 10.0 mi SSE 12.7 mph - N/A   Overcast
2:26 AM 37.4 °F 30.8 °F 33.8 °F 87% 29.52 in 10.0 mi SSE 9.2 mph - N/A   Overcast
2:34 AM 37.4 °F 29.3 °F 33.8 °F 87% 29.52 in 10.0 mi SSE 12.7 mph 18.4 mph N/A   Overcast
2:53 AM 37.0 °F 27.7 °F 33.1 °F 86% 29.45 in 9.0 mi South 16.1 mph - 0.00 in Rain Light Rain
3:00 AM 35.6 °F 25.2 °F 32.0 °F 87% 29.49 in 2.5 mi SSE 18.4 mph - 0.01 in Snow Light Snow
3:10 AM 35.6 °F 27.1 °F 32.0 °F 87% 29.49 in 3.0 mi SSE 12.7 mph - 0.01 in Snow Light Snow
3:43 AM 35.6 °F 29.2 °F 32.0 °F 87% 29.49 in 2.5 mi South 8.1 mph - 0.02 in Snow Light Snow
3:53 AM 35.1 °F 27.9 °F 32.0 °F 89% 29.47 in 1.2 mi SSE 9.2 mph - 0.03 in Snow Light Snow
4:06 AM 33.8 °F 28.6 °F 32.0 °F 93% 29.49 in 0.8 mi SE 5.8 mph - 0.02 in Snow Light Snow
4:53 AM 34.0 °F 28.0 °F 32.0 °F 92% 29.47 in 0.5 mi NE 6.9 mph - 0.15 in Fog , Snow Snow
5:06 AM 33.8 °F 28.6 °F 32.0 °F 93% 29.48 in 0.5 mi NNE 5.8 mph - 0.05 in Fog , Snow Snow
5:33 AM 33.8 °F - 30.2 °F 87% 29.47 in 1.2 mi Calm Calm - 0.09 in Snow Light Snow
5:53 AM 34.0 °F - 30.9 °F 89% 29.46 in 1.2 mi Calm Calm - 0.10 in Snow Light Snow
6:11 AM 33.8 °F 29.6 °F 30.2 °F 87% 29.49 in 2.0 mi NNW 4.6 mph - 0.01 in Snow Light Snow
6:37 AM 33.8 °F 26.4 °F 30.2 °F 87% 29.51 in 5.0 mi NNW 9.2 mph - 0.01 in Snow Light Snow
6:46 AM 33.8 °F 26.4 °F 30.2 °F 87% 29.51 in 4.0 mi North 9.2 mph - 0.01 in Snow Light Snow
6:53 AM 34.0 °F 26.0 °F 30.9 °F 89% 29.50 in 4.0 mi NNW 10.4 mph - 0.01 in Snow Light Snow
7:45 AM 33.8 °F 24.8 °F 30.2 °F 87% 29.58 in 9.0 mi North 12.7 mph - 0.00 in   Overcast
7:53 AM 34.0 °F 25.5 °F 30.9 °F 89% 29.57 in 10.0 mi North 11.5 mph - 0.00 in   Overcast
8:19 AM 35.6 °F 29.2 °F 30.2 °F 81% 29.60 in 10.0 mi North 8.1 mph - N/A   Overcast
8:34 AM 35.6 °F 29.2 °F 30.2 °F 81% 29.61 in 10.0 mi NNW 8.1 mph - N/A   Overcast
8:53 AM 35.1 °F 27.4 °F 30.0 °F 82% 29.61 in 10.0 mi NW 10.4 mph - N/A   Mostly Cloudy
9:03 AM 35.6 °F 28.0 °F 30.2 °F 81% 29.63 in 10.0 mi NNW 10.4 mph - N/A   Mostly Cloudy
9:53 AM 37.0 °F 31.0 °F 32.0 °F 82% 29.64 in 10.0 mi NNW 8.1 mph - N/A   Mostly Cloudy
10:08 AM 37.4 °F 32.8 °F 32.0 °F 81% 29.66 in 10.0 mi NNW 5.8 mph - N/A   Scattered Clouds
10:53 AM 39.0 °F 36.8 °F 32.0 °F 76% 29.66 in 10.0 mi ENE 3.5 mph - N/A   Partly Cloudy
11:53 AM 39.0 °F 34.8 °F 32.0 °F 76% 29.67 in 10.0 mi SSE 5.8 mph - N/A   Mostly Cloudy
12:53 PM 42.1 °F 37.7 °F 34.0 °F 73% 29.65 in 10.0 mi SE 6.9 mph - N/A   Partly Cloudy
1:53 PM 46.0 °F 39.0 °F 37.0 °F 71% 29.62 in 10.0 mi ENE 17.3 mph 21.9 mph N/A   Partly Cloudy
2:53 PM 43.0 °F 35.1 °F 33.1 °F 68% 29.67 in 10.0 mi ENE 17.3 mph - N/A   Scattered Clouds
3:53 PM 39.9 °F 30.0 °F 32.0 °F 73% 29.71 in 10.0 mi NE 21.9 mph 27.6 mph N/A   Scattered Clouds
4:53 PM 34.0 °F 22.4 °F 28.9 °F 82% 29.76 in 10.0 mi NE 20.7 mph 26.5 mph N/A   Mostly Cloudy
5:17 PM 32.0 °F 21.2 °F 28.4 °F 87% 29.77 in 10.0 mi ENE 16.1 mph - N/A   Overcast
5:38 PM 32.0 °F 20.8 °F 26.6 °F 80% 29.78 in 10.0 mi East 17.3 mph - N/A   Overcast
5:53 PM 32.0 °F 21.6 °F 26.1 °F 79% 29.81 in 10.0 mi ENE 15.0 mph - N/A   Overcast
6:53 PM 30.9 °F 21.2 °F 25.0 °F 79% 29.84 in 10.0 mi East 12.7 mph - N/A   Mostly Cloudy
7:34 PM 30.2 °F 22.6 °F 24.8 °F 80% 29.85 in 10.0 mi East 8.1 mph - N/A   Scattered Clouds
7:53 PM 30.0 °F 21.7 °F 24.1 °F 79% 29.89 in 10.0 mi ESE 9.2 mph - N/A   Clear
8:53 PM 30.0 °F 22.4 °F 24.1 °F 79% 29.92 in 10.0 mi East 8.1 mph - N/A   Clear
9:53 PM 28.0 °F 19.3 °F 23.0 °F 81% 29.94 in 10.0 mi East 9.2 mph - N/A   Clear
10:53 PM 27.0 °F 21.6 °F 21.9 °F 81% 29.94 in 10.0 mi East 4.6 mph - N/A   Clear
11:53 PM 26.1 °F 21.9 °F 21.9 °F 84% 29.95 in 10.0 mi NE 3.5 mph - N/A   Clear